[[{"header":{"parameterUnit":"m.s-1","parameterCategory":1,"la1":30.2991,"la2":30.254,"lo1":-89.0895,"lo2":-89.0444,"dy":0.0017,"dx":0.0017,"nx":28,"ny":28,"refTime":"2025-04-26T21:00:00:Z","depth":0,"parameterNumber":2,"parameterNumberName":"U-component_of_WINDS"},"data":[0,0,0,0,0,0,0,0,0,0,0,0,0,0,0,0,0,0,0,0,0,0,0,0,0,0,0,0,0,0,0,0,0,0,0,0,0,0,0,0,0,0,0,0,0,0,0,0,0,0,0,0,0,0,0,0,0,0,-1.4153,-1.4153,0,-1.413,-1.4129,-1.4129,-1.4139,-1.414,-1.414,-1.4141,-1.4112,-1.4111,-1.4109,0,0,0,0,0,0,0,0,0,0,0,0,0,-1.4203,-1.4203,-1.4153,-1.4153,-1.4153,-1.413,-1.4129,-1.4129,-1.4139,-1.414,-1.4141,-1.4141,-1.4112,-1.4111,-1.4109,0,0,0,0,0,0,0,0,0,0,0,0,0,-1.4181,-1.4202,-1.4153,-1.4155,-1.4155,-1.413,-1.4129,-1.4129,-1.4139,-1.414,-1.4141,-1.4142,-1.4113,-1.4111,-1.4109,-1.4079,0,0,-1.4103,-1.4102,0,0,0,0,0,0,0,0,-1.4182,-1.4179,-1.4155,-1.4155,-1.4155,-1.4139,-1.4136,-1.4112,-1.4139,-1.4145,-1.4141,-1.4142,-1.412,-1.4117,-1.4111,-1.4078,-1.4076,-1.4103,-1.4101,-1.4101,-1.41,0,0,0,0,0,0,0,-1.4184,-1.418,-1.4144,-1.4155,-1.4155,-1.4156,-1.4154,-1.4132,-1.4127,-1.4144,-1.4145,-1.4143,-1.412,-1.4112,-1.411,-1.4076,-1.4103,-1.4101,-1.41,-1.4099,-1.4017,-1.4016,0,0,0,0,0,0,-1.4186,-1.4181,-1.4145,-1.4143,-1.4171,-1.4154,-1.4152,-1.4143,-1.4128,-1.4126,-1.4142,-1.4143,-1.4115,-1.4112,-1.4109,-1.4072,-1.4101,-1.4099,-1.4098,-1.4018,-1.4016,-1.4015,0,0,0,0,0,0,-1.4187,-1.4182,-1.4146,-1.4162,-1.4158,-1.4153,-1.4142,-1.4142,-1.4135,-1.4126,-1.4125,-1.4135,-1.4116,-1.4112,-1.4087,-1.4071,-1.4098,-1.4096,-1.4019,-1.4017,-1.4016,-1.3998,0,0,0,0,0,0,-1.4188,-1.4183,-1.4172,-1.4162,-1.4157,-1.4125,-1.4141,-1.4141,-1.4132,-1.4133,-1.412,-1.4118,-1.4116,-1.409,-1.4085,-1.4069,-1.4094,-1.402,-1.4018,-1.4016,-1.4,-1.3996,-1.3993,0,0,0,0,0,-1.419,-1.4167,-1.4172,-1.4167,-1.4144,-1.4124,-1.4121,-1.412,-1.4131,-1.4119,-1.4114,-1.4118,-1.4074,-1.4087,-1.4081,-1.4065,-1.4021,-1.4019,-1.4017,-1.4002,-1.3997,-1.3993,0,0,0,0,0,0,-1.4173,-1.4166,-1.417,-1.4144,-1.4135,-1.4126,-1.4111,-1.4116,-1.4102,-1.4103,-1.4103,-1.41,-1.4073,-1.4067,-1.4081,-1.4035,-1.4049,-1.4046,-1.4039,-1.4035,-1.4032,-1.4032,-1.4093,0,0,0,0,0,-1.4167,-1.4153,-1.4147,-1.4124,-1.4119,-1.4116,-1.4107,-1.4108,-1.4098,-1.4093,-1.4086,-1.4074,-1.4058,-1.4046,-1.4031,-1.4001,-1.3996,-1.3986,-1.3983,-1.398,-1.3976,-1.3958,-1.3953,-1.4008,-1.4008,-1.4008,0,0,-1.4153,-1.4147,-1.4137,-1.412,-1.4113,-1.4097,-1.4112,-1.4094,-1.4082,-1.409,-1.4066,-1.406,-1.4047,-1.4019,-1.4006,-1.4013,-1.3961,-1.3977,-1.3975,-1.3972,-1.3955,-1.395,-1.3945,-1.4007,-1.4007,-1.4007,0,0,-1.4118,-1.4113,-1.4093,-1.4086,-1.4076,-1.4074,-1.407,-1.406,-1.4057,-1.4034,-1.4039,-1.4024,-1.3996,-1.3986,-1.3977,-1.3941,-1.3944,-1.3936,-1.3917,-1.3899,-1.3895,-1.3891,-1.3876,-1.3871,-1.3933,-1.3933,-1.3933,0,-1.41,-1.4078,-1.4082,-1.4064,-1.4055,-1.4065,-1.4043,-1.4036,-1.4021,-1.4014,-1.4023,-1.3988,-1.398,-1.3949,-1.394,-1.3934,-1.3927,-1.3936,-1.3896,-1.3892,-1.3888,-1.3873,-1.3868,-1.3932,-1.3932,-1.3932,-1.3932,0,-1.4056,-1.404,-1.4025,-1.4012,-1.4002,-1.3983,-1.3982,-1.3972,-1.3975,-1.3972,-1.3947,-1.3939,-1.3921,-1.3915,-1.3916,-1.3884,-1.3888,-1.3896,-1.391,-1.3882,-1.3868,-1.3862,-1.393,-1.3931,-1.3931,-1.3931,0,0,-1.4007,-1.3998,-1.3992,-1.3986,-1.3976,-1.3963,-1.3944,-1.3929,-1.3919,-1.3909,-1.3891,-1.3869,-1.3876,-1.3867,-1.3868,-1.3853,-1.3822,-1.3863,-1.3862,-1.3853,-1.3784,-1.3775,-1.3769,-1.3826,-1.3825,-1.3825,-1.3784,0,-1.3969,-1.3937,-1.3941,-1.3909,-1.3894,-1.3904,-1.3887,-1.3878,-1.3876,-1.3862,-1.3859,-1.3841,-1.3854,-1.3848,-1.3834,-1.3829,-1.3808,-1.3833,-1.3807,-1.3806,-1.3807,-1.3762,-1.3753,-1.3715,-1.3779,-1.3778,-1.3777,0,-1.392,-1.391,-1.3877,-1.3871,-1.3864,-1.3849,-1.3835,-1.3822,-1.3813,-1.3812,-1.3802,-1.3806,-1.3786,-1.3803,-1.3773,-1.379,-1.378,-1.3776,-1.3775,-1.377,-1.3788,-1.3753,-1.3703,-1.3696,-1.3769,-1.377,-1.3771,0,-1.3884,-1.3863,-1.384,-1.3835,-1.3827,-1.3816,-1.3812,-1.3804,-1.3794,-1.3782,-1.3776,-1.3762,-1.3752,-1.3741,-1.374,-1.3753,-1.371,-1.3727,-1.3706,-1.3706,-1.3693,-1.3693,-1.3638,-1.3693,-1.3693,-1.3693,-1.3693,0,-1.384,-1.3819,-1.3824,-1.3809,-1.3786,-1.3791,-1.3767,-1.3764,-1.3757,-1.3741,-1.375,-1.3735,-1.3737,-1.3721,-1.3721,-1.3695,-1.3692,-1.3689,-1.3688,-1.3686,-1.3686,-1.3677,-1.3678,-1.3691,-1.3692,-1.3692,-1.3692,0,-1.3794,-1.3797,-1.3773,-1.3768,-1.3767,-1.3749,-1.3745,-1.373,-1.373,-1.371,-1.3706,-1.3704,-1.3686,-1.3686,-1.3665,-1.3665,-1.3633,-1.3637,-1.3636,-1.3635,-1.3614,-1.3615,-1.3548,-1.3538,-1.3602,-1.3602,-1.3601,0,-1.3764,-1.3748,-1.3743,-1.3734,-1.373,-1.3715,-1.3706,-1.3711,-1.3701,-1.369,-1.3677,-1.366,-1.3647,-1.3618,-1.3613,-1.3597,-1.3599,-1.3577,-1.3596,-1.3595,-1.3595,-1.3595,-1.3592,-1.3572,-1.3571,-1.3571,-1.357,0,-1.3709,-1.3712,-1.37,-1.3688,-1.3678,-1.3668,-1.3659,-1.3651,-1.3655,-1.3644,-1.3626,-1.3616,-1.3596,-1.3579,-1.3564,-1.3558,-1.3563,-1.3565,-1.3559,-1.3554,-1.3553,-1.3551,-1.3622,-1.3565,-1.3566,-1.3566,-1.3567,-1.3567,-1.3668,-1.3654,-1.3648,-1.3634,-1.3629,-1.3621,-1.3608,-1.3607,-1.3593,-1.3578,-1.3582,-1.3562,-1.3553,-1.3534,-1.3527,-1.3511,-1.3518,-1.351,-1.3507,-1.3504,-1.35,-1.356,-1.3509,-1.3509,-1.3509,-1.3509,-1.3509,0,-1.3611,-1.3609,-1.3596,-1.3585,-1.3573,-1.3584,-1.3575,-1.3564,-1.3547,-1.354,-1.3527,-1.3507,-1.3491,-1.3487,-1.3471,-1.3458,-1.346,-1.3454,-1.3452,-1.3451,-1.3496,-1.3502,-1.3452,-1.3452,-1.3452,-1.3452,-1.3452,-1.3452,-1.358,-1.3556,-1.3559,-1.3533,-1.353,-1.3512,-1.3506,-1.3498,-1.3492,-1.347,-1.3457,-1.3456,-1.3449,-1.3433,-1.3418,-1.3418,-1.341,-1.3401,-1.3401,-1.3442,-1.3448,-1.3453,-1.3458,-1.34,-1.34,-1.3356,-1.3356,-1.3355]},{"header":{"parameterUnit":"m.s-1","parameterCategory":1,"la1":30.2991,"la2":30.254,"lo1":-89.0895,"lo2":-89.0444,"dy":0.0017,"dx":0.0017,"nx":28,"ny":28,"refTime":"2025-04-26T21:00:00:Z","depth":0,"parameterNumber":3,"parameterNumberName":"V-component_of_WINDS"},"data":[0,0,0,0,0,0,0,0,0,0,0,0,0,0,0,0,0,0,0,0,0,0,0,0,0,0,0,0,0,0,0,0,0,0,0,0,0,0,0,0,0,0,0,0,0,0,0,0,0,0,0,0,0,0,0,0,0,0,-1.6805,-1.6807,0,-1.6987,-1.6989,-1.6992,-1.7086,-1.7087,-1.7087,-1.7087,-1.7273,-1.7277,-1.7282,0,0,0,0,0,0,0,0,0,0,0,0,0,-1.6536,-1.6541,-1.6805,-1.6807,-1.6809,-1.6987,-1.699,-1.6992,-1.7086,-1.7087,-1.7087,-1.7087,-1.7271,-1.7277,-1.7282,0,0,0,0,0,0,0,0,0,0,0,0,0,-1.6679,-1.6542,-1.6804,-1.6878,-1.6886,-1.6987,-1.699,-1.6993,-1.7086,-1.7087,-1.7087,-1.7087,-1.7269,-1.7276,-1.7283,-1.7324,0,0,-1.7305,-1.7309,0,0,0,0,0,0,0,0,-1.6671,-1.6689,-1.6865,-1.6873,-1.6882,-1.7014,-1.6963,-1.7104,-1.7086,-1.701,-1.7087,-1.7087,-1.7186,-1.72,-1.7234,-1.7333,-1.7341,-1.7306,-1.731,-1.7314,-1.7316,0,0,0,0,0,0,0,-1.6661,-1.6682,-1.6877,-1.6867,-1.6878,-1.6901,-1.6922,-1.699,-1.7095,-1.7017,-1.7024,-1.7045,-1.7191,-1.7227,-1.7239,-1.7344,-1.7306,-1.7312,-1.7317,-1.732,-1.7484,-1.7484,0,0,0,0,0,0,-1.6639,-1.6673,-1.6871,-1.6882,-1.6775,-1.6906,-1.6929,-1.6972,-1.7095,-1.7113,-1.7044,-1.7048,-1.7215,-1.7231,-1.7246,-1.7302,-1.7313,-1.732,-1.7324,-1.7484,-1.7484,-1.7484,0,0,0,0,0,0,-1.6633,-1.6656,-1.6864,-1.678,-1.6808,-1.691,-1.6958,-1.6975,-1.7011,-1.7115,-1.7134,-1.7062,-1.7215,-1.7236,-1.7304,-1.731,-1.7324,-1.733,-1.7484,-1.7484,-1.7484,-1.7414,0,0,0,0,0,0,-1.6625,-1.6653,-1.667,-1.6779,-1.6812,-1.6919,-1.6958,-1.6979,-1.7024,-1.7031,-1.7137,-1.7154,-1.7217,-1.7293,-1.7311,-1.732,-1.7336,-1.7484,-1.7484,-1.7484,-1.7416,-1.7411,-1.7407,0,0,0,0,0,-1.6615,-1.6643,-1.6671,-1.6694,-1.6835,-1.6919,-1.6938,-1.701,-1.7024,-1.7041,-1.7108,-1.7151,-1.7306,-1.7299,-1.7321,-1.7331,-1.7484,-1.7484,-1.7484,-1.7418,-1.7412,-1.7407,0,0,0,0,0,0,-1.6531,-1.6658,-1.6691,-1.6755,-1.6825,-1.6935,-1.6959,-1.7001,-1.7069,-1.7073,-1.7159,-1.7182,-1.7242,-1.7294,-1.7284,-1.7377,-1.7399,-1.7404,-1.7341,-1.7337,-1.7333,-1.7319,-1.7342,0,0,0,0,0,-1.652,-1.6578,-1.6686,-1.6732,-1.6766,-1.6856,-1.6895,-1.6945,-1.7021,-1.7051,-1.7123,-1.7195,-1.7261,-1.7302,-1.7367,-1.7424,-1.7448,-1.7442,-1.7437,-1.7433,-1.7436,-1.7469,-1.7468,-1.7485,-1.7485,-1.7485,0,0,-1.6498,-1.6575,-1.6606,-1.6717,-1.6778,-1.6835,-1.6881,-1.6939,-1.6983,-1.706,-1.7129,-1.7184,-1.727,-1.7332,-1.7363,-1.7377,-1.7437,-1.7433,-1.7429,-1.7435,-1.7469,-1.7467,-1.7466,-1.7485,-1.7485,-1.7485,0,0,-1.6487,-1.6551,-1.6596,-1.6656,-1.6747,-1.6807,-1.6817,-1.6921,-1.6961,-1.7031,-1.709,-1.7143,-1.7253,-1.7312,-1.7356,-1.7367,-1.7409,-1.7386,-1.7363,-1.7394,-1.7393,-1.7392,-1.7396,-1.7396,-1.7388,-1.7388,-1.7388,0,-1.6448,-1.6537,-1.6614,-1.667,-1.6716,-1.6789,-1.6835,-1.689,-1.6997,-1.7028,-1.7042,-1.7182,-1.7245,-1.7322,-1.7324,-1.7358,-1.7372,-1.7374,-1.7387,-1.7387,-1.7388,-1.7392,-1.7393,-1.7385,-1.7385,-1.7385,-1.7386,0,-1.6484,-1.6545,-1.6571,-1.6673,-1.6723,-1.6773,-1.6857,-1.6898,-1.6943,-1.7001,-1.7071,-1.715,-1.7232,-1.7254,-1.7298,-1.7337,-1.7343,-1.7371,-1.7395,-1.7381,-1.7387,-1.7389,-1.738,-1.7381,-1.7382,-1.7383,0,0,-1.6426,-1.657,-1.6578,-1.6625,-1.6731,-1.6779,-1.6832,-1.6914,-1.6947,-1.7019,-1.7065,-1.7157,-1.7183,-1.7233,-1.7285,-1.7312,-1.7315,-1.7337,-1.7341,-1.733,-1.7362,-1.734,-1.734,-1.7343,-1.7344,-1.7345,-1.7355,0,-1.6429,-1.6529,-1.66,-1.6672,-1.6729,-1.6799,-1.6845,-1.6915,-1.697,-1.7026,-1.7088,-1.7151,-1.7181,-1.7212,-1.7242,-1.7308,-1.7323,-1.7309,-1.7387,-1.7389,-1.7363,-1.7344,-1.7321,-1.7326,-1.7357,-1.7358,-1.7358,0,-1.6447,-1.6517,-1.6594,-1.6694,-1.6721,-1.6761,-1.6841,-1.6894,-1.6974,-1.7012,-1.7068,-1.7121,-1.718,-1.7198,-1.728,-1.7269,-1.7305,-1.7342,-1.7344,-1.7354,-1.7372,-1.7352,-1.733,-1.733,-1.7362,-1.7362,-1.7361,0,-1.6396,-1.6509,-1.657,-1.6609,-1.6726,-1.6753,-1.6803,-1.6884,-1.6928,-1.6997,-1.7027,-1.7102,-1.7143,-1.7199,-1.7271,-1.7278,-1.7345,-1.737,-1.7378,-1.7376,-1.7389,-1.7387,-1.7371,-1.7412,-1.7412,-1.7412,-1.7412,0,-1.6392,-1.6437,-1.6549,-1.6586,-1.6639,-1.6719,-1.6768,-1.6824,-1.6895,-1.6944,-1.7009,-1.7054,-1.7145,-1.7201,-1.7257,-1.7316,-1.7334,-1.7366,-1.7381,-1.736,-1.7356,-1.7385,-1.7386,-1.7413,-1.7413,-1.7412,-1.7412,0,-1.6344,-1.6421,-1.6492,-1.6598,-1.6625,-1.6659,-1.6749,-1.6788,-1.6847,-1.6908,-1.6927,-1.702,-1.7088,-1.7165,-1.726,-1.7297,-1.7352,-1.7373,-1.7325,-1.7333,-1.7337,-1.7335,-1.7339,-1.7344,-1.7381,-1.7381,-1.738,0,-1.6337,-1.6373,-1.6482,-1.652,-1.6569,-1.6629,-1.6674,-1.6754,-1.6799,-1.6893,-1.692,-1.6994,-1.7057,-1.7163,-1.7238,-1.7311,-1.7334,-1.733,-1.7345,-1.7323,-1.7333,-1.733,-1.7333,-1.7325,-1.7324,-1.7324,-1.7323,0,-1.6315,-1.6351,-1.6415,-1.6491,-1.6543,-1.6607,-1.6674,-1.6701,-1.6794,-1.6841,-1.6912,-1.6961,-1.7058,-1.713,-1.7211,-1.7262,-1.7308,-1.7318,-1.7324,-1.7303,-1.7274,-1.7289,-1.7313,-1.7318,-1.7318,-1.7319,-1.7319,-1.7319,-1.6287,-1.6322,-1.6405,-1.6473,-1.6531,-1.6592,-1.6633,-1.6698,-1.6759,-1.6844,-1.6887,-1.6958,-1.7037,-1.7151,-1.72,-1.7256,-1.7271,-1.7279,-1.7281,-1.7282,-1.7276,-1.7265,-1.7271,-1.7272,-1.7272,-1.7272,-1.7272,0,-1.6268,-1.6325,-1.6387,-1.6478,-1.6531,-1.657,-1.6646,-1.6688,-1.6749,-1.6819,-1.688,-1.6962,-1.7032,-1.7112,-1.7187,-1.7216,-1.7239,-1.7233,-1.7232,-1.7243,-1.7259,-1.7246,-1.7214,-1.7214,-1.7214,-1.7214,-1.7214,-1.7214,-1.6265,-1.6327,-1.6372,-1.6463,-1.652,-1.659,-1.6629,-1.6685,-1.6741,-1.683,-1.6889,-1.6941,-1.7015,-1.7096,-1.7161,-1.7183,-1.7208,-1.7195,-1.7223,-1.7237,-1.7242,-1.7246,-1.7235,-1.72,-1.72,-1.7202,-1.7202,-1.7202]}]]